COSMOS 1358

导读 | 豆包AI

COSMOS 1358(宇宙1358)是苏联(CIS,独联体前身)在1962年启动的宇宙卫星系列中的一颗无人卫星,于1982年5月6日08:00发射入轨。 宇宙卫星系列涵盖科学研究、通信、军事侦察等多元任务,是苏联/俄罗斯规模最大的卫星家族,截至2013年已发射近2500颗卫星,为航天技术发展和空间探索积累了大量宝贵数据,COSMOS 1358也承担着该系列对应领域的空间探测或技术验证任务。

基本信息
目录编号:
13161
目录名称:
COSMOS 1358
国际标识:
1982-040B
轨道中心:
EARTH
卫星名称:
COSMOS 1358
卫星全名:
--
卫星状态:
在轨 (已飞行16065 天)
发射日期:
1982-05-06 UTC
国别 :
俄罗斯(独联体) (CIS)
星等 :
--
轨道信息
数据来源 国际轨道数据
星历时间: 2026-04-30T21:27:02+0800
5小时前
查看轨道信息
半长轴: 7825.967km
偏心率: 0.0042368
轨道倾角: 74.012°
近地点辐角 306.981°
升交点赤经 217.171°
平近点角 64.042°
近地点: 1414.672km
远地点: 1480.988km
周期: 114.833分钟
每日圈数: 12.53995
详细信息
使用方式:
暂无
2D轨道图
3D轨道图
轨道高度分析图
轨道倾角分析图
轨道综合分析图
查看轨道综合分析图